Location: Friaudour
(46.0460°N, 1.2873°E)
Time: 08:41:24
(UTC+00:00)

GRACE-FO 2 - Pass Details

Date: 14 July 2020
Orbit: 480 x 506 km, 89.0° (Epoch: 15 August)

Event Time Altitude Azimuth Distance (km) Brightness Sun altitude
Rises 01:11:54 0° 0° (N) 2,570 9.6 -20.4°
Reaches altitude 10° 01:14:00 10° 1° (N) 1,681 8.4 -20.3°
Maximum altitude 01:17:39 89° 79° (E) 490 4.4 -20.1°
Enters shadow 01:18:01 71° 178° (S) 515 4.4 -20.1°
